Regional Weather Roundup
Issued by NWS Upton, NY

Current Version | Previous Version | Graphics & Text | Print | Product List | Glossary Off
Versions: 1 2 3 4 5 6 7 8 9 10 11 12 13 14 15 16 17 18 19 20 21 22 23 24 25 26 27 28 29 30

000
ASUS41 KOKX 220809
RWROKX

REGIONAL WEATHER ROUNDUP
NATIONAL WEATHER SERVICE NEW YORK NY
300 AM EST WED NOV 22 2017

NOTE: "FAIR" INDICATES FEW OR NO CLOUDS BELOW 12,000 FEET WITH NO
SIGNIFICANT WEATHER AND/OR OBSTRUCTIONS TO VISIBILITY.

NYZ071-072-176-178-NJZ106-104-220900-
NEW YORK CITY METRO AREA

CITY           SKY/WX    TMP DP  RH WIND       PRES   REMARKS
Central Park   CLOUDY    54  44  69 CALM      29.99F
Bronx Bot Gard   N/A     48  41  76 SE2       30.00R
Bronx Lehman C   N/A     54  32  43 S3          N/A
LaGuardia APRT NOT AVBL
Queens College   N/A     52  32  46 S3          N/A
Kennedy INTL   CLOUDY    51  47  86 CALM      29.99F
Breezy Point     N/A     52 N/A N/A W3          N/A
Brooklyn Coll    N/A     52  32  46 E1          N/A
Staten Island    N/A     52  32  46 S1          N/A
Newark/Liberty CLOUDY    47  40  76 CALM      29.97F
Teterboro      CLOUDY    44  39  82 CALM      29.96F
$$

NYZ177-179-078>081-220900-
LONG ISLAND NEW YORK

CITY           SKY/WX    TMP DP  RH WIND       PRES   REMARKS
Jones Beach      N/A     55 N/A N/A SW8G14      N/A
Wantagh          N/A     54  32  43 SW5         N/A
Matinecock PT    N/A     54 N/A N/A S3          N/A
Farmingdale    LGT RAIN  49  45  86 CALM      29.98F
MacArthur/ISP  LGT RAIN  52  50  93 S3        29.98F
Shirley        CLOUDY    54  54 100 W6        30.00F
Mt Sinai Harb    N/A    N/A N/A N/A S3          N/A
Westhampton    LGT RAIN  54  51  90 CALM      30.00F
East Hampton   LGT RAIN  53  51  94 CALM      30.00F
Southold         N/A     54  32  43 S7          N/A
Montauk          N/A     59  53  80 SW6       30.02F
$$

NYZ052-065-067-220900-
HUDSON VALLEY

CITY           SKY/WX    TMP DP  RH WIND       PRES   REMARKS
White Plains   CLOUDY    43  40  89 CALM      29.96F
Larchmont Harb   N/A     50 N/A N/A S3          N/A
Croton On Huds   N/A     46 N/A N/A MISG        N/A
Somers           N/A     46  32  57 S3          N/A
Brewster         N/A     39  32  75 CALM        N/A
Newburgh       CLEAR     36  34  93 CALM      29.97S
Montgomery     MOCLDY    32  29  88 CALM      29.95F
Suffern          N/A     43  32  65 CALM        N/A
Poughkeepsie   CLOUDY    34  29  82 CALM      29.96S
Albany         CLOUDY    44  31  60 S10       29.94R
$$

NJZ001-105-106-008-010-013-015-019>022-104-220900-
NEW JERSEY

CITY           SKY/WX    TMP DP  RH WIND       PRES   REMARKS
Newark/Liberty CLOUDY    47  40  76 CALM      29.97F
Teterboro      CLOUDY    44  39  82 CALM      29.96F
Caldwell       MOCLDY    38  35  89 CALM      29.97F
Somerville     CLOUDY    35  32  88 NW3       29.95F
Linden         FAIR      43  37  77 CALM      29.97F
Perth Amboy      N/A     48 N/A N/A N1          N/A
Sussex         CLOUDY    34  31  88 CALM      29.95F
Andover          N/A     36  34  92 CALM      29.95F
Trenton        CLOUDY    47  42  83 CALM      29.95F
Millville      RAIN      53  53 100 VRB5      29.97F FOG
Atlantic City  RAIN      60  56  86 W13       29.98S
Wrightstown    LGT RAIN  50  49  95 CALM      29.94F
Toms River     LGT RAIN  51  50  96 NW8       29.98F
Belmar         LGT RAIN  55  51  86 S8          N/A
$$

PAZ047>061-062-071-220900-
EASTERN PENNSYLVANIA

CITY           SKY/WX    TMP DP  RH WIND       PRES   REMARKS
Philadelphia   CLOUDY    53  46  77 S6        29.96F
Allentown      CLOUDY    36  31  82 NW5       29.95F WCI  32
Scranton       CLOUDY    45  38  76 CALM      29.92F
$$

CTZ002-004>006-009-010-012-RIZ004-006-007-MAZ004-011-015-220900-
SOUTHERN NEW ENGLAND
 IN CT

CITY           SKY/WX    TMP DP  RH WIND       PRES   REMARKS
Bradley INTL   CLOUDY    40  37  89 CALM      29.99S
Hartford       MOCLDY    43  40  89 CALM      29.99S
Danbury        MOCLDY    39  36  89 N3        29.98F
Wtrbury/Oxford MOCLDY    47  40  76 SW3       29.98F
Norwalk Harbor   N/A     52 N/A N/A SW7         N/A
Bridgeport     CLOUDY    52  46  80 SW3       29.99F
Meriden        CLOUDY    38  37  97 CALM      29.99F
New Haven      CLOUDY    53  47  79 S5        29.99F
Chester        FAIR      54  46  76 VRB5      30.00S
Groton         LGT RAIN  50  47  89 CALM      30.00F
Wilimantic     CLOUDY    42  38  85 CALM      30.01S

 IN RI

CITY           SKY/WX    TMP DP  RH WIND       PRES   REMARKS
Providence     CLOUDY    51  49  92 S7        30.02F
Block Island   CLOUDY    56  53  90 W7        30.02F
Westerly       LGT RAIN  54  53  97 CALM      30.02F FOG
 IN MA

CITY           SKY/WX    TMP DP  RH WIND       PRES   REMARKS
Boston         CLOUDY    46  42  86 S9        30.01F
Worcester      CLOUDY    45  38  76 SW10      29.97F
Westfield      CLOUDY    39  37  92 S3        29.98S
Provincetown   CLOUDY    54  50  86 S8        30.04S
Nantucket      CLOUDY    56  53  90 S15       30.05F
$$

ANZ330-335-338-340-345-350-353-355-220900-
COASTAL MARINE OBSERVATIONS


STATION/POSITION TIME  SKY/WX   TEMP    WIND        PRES    VSBY  WAVE
                                AIR SEA DIR/SP/G                  HT/PER
                 (UTC)          (F)     (DEG/KT/KT) (MB)    (MI)  (FT/S)
NY HARB ENTRANCE 0650            57 58  240/ 10/ 12 1015.2          4/ 7
20 S FIRE ISLAND 0650            60 57  200/ 17/ 21 1015.6          7/ 7
GREAT SOUTH BAY  0730            51 45  210/  4/  8   N/A
HUDSON CANYON    0650            62 59  170/ 16/ 17 1016.5          5/ 7
KINGS POINT      0748            52 51  190/  5/  6 1015.9
EXECUTION ROCKS  0745            52     160/  6/  6   N/A
WESTERN LI SOUND 0649            54     230/  6/  6   N/A           0
CENTRAL LI SOUND 0715            55     230/  4/  6   N/A           2
ROBBINS REEF     0748            53      CALM  /  2 1015.6
$$


>>>>>>>>>>>>>>>>>>>>>>>>>>>> KEY <<<<<<<<<<<<<<<<<<<<<<<<<<<
>                                                          <
>     SKY/WX - Sky Condition/Present Weather               <
>     TMP    - Temperature in Fahrenheit                   <
>     DP     - Dew Point in Fahrenheit                     <
>     RH     - Relative Humidity in Percent                <
>     WIND   - Direction (from) and Speed in MPH           <
>     PRES   - Mean Sea Level Pressure (inches of Hg)      <
>     WCI    - Wind Chill Index                            <
>     VSB    - VISIBILITY IN MILES                         <
>     HX     - HEAT INDEX                                  <
>     TC     - TEMPERATURE IN CELSIUS                      <
>     VRB    - VARIABLE WIND DIRECTION                     <
>                                                          <
>>>>>>>>>>>>>>>>>>>>>>>>>>>> KEY <<<<<<<<<<<<<<<<<<<<<<<<<<<




USA.gov is the U.S. government's official web portal to all federal, state and local government web resources and services.